Zurück zum Katalog

STARLINK-35674

AktivKommunikationVLEO
NORAD 67117·PAYLOAD·🇺🇸 United States

Gestartet Dec 15, 2025 von Cape Canaveral Space Force Station

Loading…

Nächste Überflüge (nächste 24 Stunden)

TLE

AktuellSource: CelesTrak SupGP

Epoche: Sep 14, 2026, 20:56 UTC

1 67117C 25299R   26257.87270833  .00002723  00000+0  98630-4 0  2579
2 67117  43.0034 180.5627 0001338 261.3052 314.1825 15.27576290    10

Verfolge STARLINK-35674 in Echtzeit mit AllMySat

Download on the App Store